Time,TemperatureF,DewpointF,PressureIn,WindDirection,WindDirectionDegrees,WindSpeedMPH,WindSpeedGustMPH,Humidity,HourlyPrecipIn,Conditions,Clouds,dailyrainin,SoftwareType,DateUTC
2013-07-09 00:00:00,72.4,70.9,30.11,East,88,0.0,0.0,95,0.00,,---,0.00,VWS V14.01,2013-07-09 04:00:00,
2013-07-09 00:01:00,72.4,70.9,30.11,East,93,0.0,0.0,95,0.00,,---,0.00,VWS V14.01,2013-07-09 04:01:00,
2013-07-09 00:02:00,72.4,70.9,30.11,East,93,0.0,0.0,95,0.00,,---,0.00,VWS V14.01,2013-07-09 04:02:00,
2013-07-09 00:07:00,72.4,70.9,30.11,East,93,1.0,1.0,95,0.00,,---,0.00,VWS V14.01,2013-07-09 04:07:00,
2013-07-09 00:12:00,72.4,70.9,30.11,East,93,0.0,1.0,95,0.00,,---,0.00,VWS V14.01,2013-07-09 04:12:00,
2013-07-09 00:17:00,72.4,70.9,30.11,SE,144,0.0,1.0,95,0.00,,---,0.00,VWS V14.01,2013-07-09 04:17:00,
2013-07-09 00:22:00,72.4,70.9,30.11,South,177,0.0,1.0,95,0.00,,---,0.00,VWS V14.01,2013-07-09 04:22:00,
2013-07-09 00:27:00,72.3,70.8,30.11,South,176,0.0,0.0,95,0.00,,---,0.00,VWS V14.01,2013-07-09 04:27:00,
2013-07-09 00:32:00,72.3,70.8,30.11,South,177,0.0,0.0,95,0.00,,---,0.00,VWS V14.01,2013-07-09 04:32:00,
2013-07-09 00:37:00,72.2,70.7,30.11,SSW,207,0.0,0.0,95,0.00,,---,0.00,VWS V14.01,2013-07-09 04:37:00,
2013-07-09 00:42:00,72.1,70.6,30.11,SSW,211,0.0,0.0,95,0.00,,---,0.00,VWS V14.01,2013-07-09 04:42:00,
2013-07-09 00:47:00,72.1,70.6,30.11,SSW,211,0.0,0.0,95,0.00,,---,0.00,VWS V14.01,2013-07-09 04:47:00,
2013-07-09 00:52:00,72.0,70.5,30.11,SSW,211,0.0,0.0,95,0.00,,---,0.00,VWS V14.01,2013-07-09 04:52:00,
2013-07-09 00:57:00,71.9,70.4,30.11,SW,221,0.0,0.0,95,0.00,,---,0.00,VWS V14.01,2013-07-09 04:57:00,
2013-07-09 01:02:00,71.8,70.3,30.11,NNE,24,0.0,0.0,95,0.00,,---,0.00,VWS V14.01,2013-07-09 05:02:00,
2013-07-09 01:07:00,71.8,70.3,30.11,NE,53,0.0,0.0,95,0.00,,---,0.00,VWS V14.01,2013-07-09 05:07:00,
2013-07-09 01:12:00,71.8,70.3,30.10,NE,53,0.0,0.0,95,0.00,,---,0.00,VWS V14.01,2013-07-09 05:12:00,
2013-07-09 01:17:00,71.7,70.2,30.10,NE,53,0.0,0.0,95,0.00,,---,0.00,VWS V14.01,2013-07-09 05:17:00,
2013-07-09 01:22:00,71.7,70.2,30.11,East,98,0.0,0.0,95,0.00,,---,0.00,VWS V14.01,2013-07-09 05:22:00,
2013-07-09 01:27:00,71.6,70.1,30.11,SSE,149,0.0,0.0,95,0.00,,---,0.00,VWS V14.01,2013-07-09 05:27:00,
2013-07-09 01:32:00,71.6,70.1,30.11,SSE,150,0.0,0.0,95,0.00,,---,0.00,VWS V14.01,2013-07-09 05:32:00,
2013-07-09 01:37:00,71.5,70.0,30.11,SSE,149,0.0,0.0,95,0.00,,---,0.00,VWS V14.01,2013-07-09 05:37:00,
2013-07-09 01:42:00,71.4,69.9,30.11,South,186,0.0,0.0,95,0.00,,---,0.00,VWS V14.01,2013-07-09 05:42:00,
2013-07-09 01:47:00,71.3,69.8,30.11,SSW,195,0.0,0.0,95,0.00,,---,0.00,VWS V14.01,2013-07-09 05:47:00,
2013-07-09 01:52:00,71.2,69.7,30.11,SSW,195,0.0,0.0,95,0.00,,---,0.00,VWS V14.01,2013-07-09 05:52:00,
2013-07-09 01:57:00,71.1,69.6,30.11,SSW,201,0.0,0.0,95,0.00,,---,0.00,VWS V14.01,2013-07-09 05:57:00,
2013-07-09 02:02:00,71.0,69.5,30.11,SW,229,0.0,0.0,95,0.00,,---,0.00,VWS V14.01,2013-07-09 06:02:00,
2013-07-09 02:07:00,71.0,69.5,30.11,SW,229,0.0,0.0,95,0.00,,---,0.00,VWS V14.01,2013-07-09 06:07:00,
2013-07-09 02:12:00,70.9,69.4,30.11,SW,229,0.0,0.0,95,0.00,,---,0.00,VWS V14.01,2013-07-09 06:12:00,
2013-07-09 02:17:00,70.8,69.3,30.11,SW,232,0.0,0.0,95,0.00,,---,0.00,VWS V14.01,2013-07-09 06:17:00,
2013-07-09 02:23:00,70.8,69.3,30.11,SW,236,0.0,0.0,95,0.00,,---,0.00,VWS V14.01,2013-07-09 06:23:00,
2013-07-09 02:28:00,70.8,69.3,30.11,SW,236,0.0,0.0,95,0.00,,---,0.00,VWS V14.01,2013-07-09 06:28:00,
2013-07-09 02:33:00,70.8,69.3,30.11,SW,236,0.0,0.0,95,0.00,,---,0.00,VWS V14.01,2013-07-09 06:33:00,
2013-07-09 02:38:00,70.7,69.2,30.11,SW,236,0.0,0.0,95,0.00,,---,0.00,VWS V14.01,2013-07-09 06:38:00,
2013-07-09 02:43:00,70.7,69.2,30.11,WSW,245,0.0,0.0,95,0.00,,---,0.00,VWS V14.01,2013-07-09 06:43:00,
2013-07-09 02:48:00,70.8,69.3,30.11,WSW,246,0.0,0.0,95,0.00,,---,0.00,VWS V14.01,2013-07-09 06:48:00,
2013-07-09 02:53:00,70.9,69.4,30.11,WSW,245,0.0,0.0,95,0.00,,---,0.00,VWS V14.01,2013-07-09 06:53:00,
2013-07-09 02:58:00,70.9,69.4,30.11,WSW,245,0.0,0.0,95,0.00,,---,0.00,VWS V14.01,2013-07-09 06:58:00,
2013-07-09 03:03:00,71.1,69.6,30.11,WSW,243,0.0,0.0,95,0.00,,---,0.00,VWS V14.01,2013-07-09 07:03:00,
2013-07-09 03:08:00,71.1,69.6,30.11,WSW,250,0.0,0.0,95,0.00,,---,0.00,VWS V14.01,2013-07-09 07:08:00,
2013-07-09 03:13:00,71.2,69.7,30.11,West,260,0.0,0.0,95,0.00,,---,0.00,VWS V14.01,2013-07-09 07:13:00,
2013-07-09 03:18:00,71.3,69.8,30.10,WSW,248,0.0,1.0,95,0.00,,---,0.00,VWS V14.01,2013-07-09 07:18:00,
2013-07-09 03:23:00,71.4,69.9,30.10,WSW,248,0.0,1.0,95,0.00,,---,0.00,VWS V14.01,2013-07-09 07:23:00,
2013-07-09 03:28:00,71.5,70.0,30.10,WSW,248,0.0,0.0,95,0.00,,---,0.00,VWS V14.01,2013-07-09 07:28:00,
2013-07-09 03:33:00,71.5,70.0,30.10,WSW,248,0.0,0.0,95,0.00,,---,0.00,VWS V14.01,2013-07-09 07:33:00,
2013-07-09 03:38:00,71.6,70.1,30.10,West,260,0.0,0.0,95,0.00,,---,0.00,VWS V14.01,2013-07-09 07:38:00,
2013-07-09 03:43:00,71.6,70.1,30.10,West,280,0.0,0.0,95,0.00,,---,0.00,VWS V14.01,2013-07-09 07:43:00,
2013-07-09 03:48:00,71.7,70.2,30.10,West,280,0.0,0.0,95,0.00,,---,0.00,VWS V14.01,2013-07-09 07:48:00,
2013-07-09 03:53:00,71.8,70.3,30.09,West,279,0.0,0.0,95,0.00,,---,0.00,VWS V14.01,2013-07-09 07:53:00,
2013-07-09 03:58:00,71.8,70.3,30.09,West,280,0.0,0.0,95,0.00,,---,0.00,VWS V14.01,2013-07-09 07:58:00,
2013-07-09 04:03:00,71.8,70.3,30.10,West,279,0.0,0.0,95,0.00,,---,0.00,VWS V14.01,2013-07-09 08:03:00,
2013-07-09 04:08:00,71.9,70.4,30.10,West,280,0.0,0.0,95,0.00,,---,0.00,VWS V14.01,2013-07-09 08:08:00,
2013-07-09 04:13:00,72.0,70.5,30.10,WNW,295,0.0,0.0,95,0.00,,---,0.00,VWS V14.01,2013-07-09 08:13:00,
2013-07-09 04:18:00,72.1,70.6,30.10,WNW,302,0.0,0.0,95,0.00,,---,0.00,VWS V14.01,2013-07-09 08:18:00,
2013-07-09 04:23:00,72.1,70.6,30.10,WNW,301,0.0,0.0,95,0.00,,---,0.00,VWS V14.01,2013-07-09 08:23:00,
2013-07-09 04:28:00,72.2,70.7,30.10,WNW,302,0.0,0.0,95,0.00,,---,0.00,VWS V14.01,2013-07-09 08:28:00,
2013-07-09 04:33:00,72.2,70.7,30.10,WNW,301,0.0,0.0,95,0.00,,---,0.00,VWS V14.01,2013-07-09 08:33:00,
2013-07-09 04:38:00,72.3,70.8,30.10,WNW,302,0.0,0.0,95,0.00,,---,0.00,VWS V14.01,2013-07-09 08:38:00,
2013-07-09 04:43:00,72.3,70.8,30.10,NW,304,0.0,0.0,95,0.00,,---,0.00,VWS V14.01,2013-07-09 08:43:00,
2013-07-09 04:48:00,72.4,70.9,30.10,NW,319,0.0,0.0,95,0.00,,---,0.00,VWS V14.01,2013-07-09 08:48:00,
2013-07-09 04:53:00,72.4,70.9,30.10,NW,319,0.0,0.0,95,0.00,,---,0.00,VWS V14.01,2013-07-09 08:53:00,
2013-07-09 04:58:00,72.5,71.0,30.10,NNW,338,0.0,0.0,95,0.00,,---,0.00,VWS V14.01,2013-07-09 08:58:00,
2013-07-09 05:03:00,72.6,71.1,30.10,NNW,338,0.0,0.0,95,0.00,,---,0.00,VWS V14.01,2013-07-09 09:03:00,
2013-07-09 05:08:00,72.6,71.1,30.10,NNW,338,0.0,0.0,95,0.00,,---,0.00,VWS V14.01,2013-07-09 09:08:00,
2013-07-09 05:14:00,72.7,71.2,30.10,NNW,338,0.0,0.0,95,0.00,,---,0.00,VWS V14.01,2013-07-09 09:14:00,
2013-07-09 05:19:00,72.8,71.3,30.09,NNW,338,0.0,0.0,95,0.00,,---,0.00,VWS V14.01,2013-07-09 09:19:00,
2013-07-09 05:24:00,72.9,71.1,30.09,NNW,339,0.0,0.0,94,0.00,,---,0.00,VWS V14.01,2013-07-09 09:24:00,
2013-07-09 05:29:00,72.9,71.1,30.09,NNW,339,0.0,0.0,94,0.00,,---,0.00,VWS V14.01,2013-07-09 09:29:00,
2013-07-09 05:34:00,73.0,71.2,30.09,NNW,339,0.0,0.0,94,0.00,,---,0.00,VWS V14.01,2013-07-09 09:34:00,
2013-07-09 05:39:00,73.0,71.2,30.09,NNW,340,0.0,0.0,94,0.00,,---,0.00,VWS V14.01,2013-07-09 09:39:00,
2013-07-09 05:44:00,73.1,71.3,30.09,NNW,339,0.0,0.0,94,0.00,,---,0.00,VWS V14.01,2013-07-09 09:44:00,
2013-07-09 05:49:00,73.1,71.3,30.09,NNW,339,0.0,0.0,94,0.00,,---,0.00,VWS V14.01,2013-07-09 09:49:00,
2013-07-09 05:54:00,73.2,71.4,30.10,NNW,339,0.0,0.0,94,0.00,,---,0.00,VWS V14.01,2013-07-09 09:54:00,
2013-07-09 05:59:00,73.2,71.4,30.10,NNW,340,0.0,0.0,94,0.00,,---,0.00,VWS V14.01,2013-07-09 09:59:00,
2013-07-09 06:04:00,73.2,71.4,30.09,NW,317,0.0,1.0,94,0.00,,---,0.00,VWS V14.01,2013-07-09 10:04:00,
2013-07-09 06:09:00,73.2,71.4,30.10,NE,50,0.0,1.0,94,0.00,,---,0.00,VWS V14.01,2013-07-09 10:09:00,
2013-07-09 06:14:00,73.3,71.5,30.10,NE,50,0.0,1.0,94,0.00,,---,0.00,VWS V14.01,2013-07-09 10:14:00,
2013-07-09 06:19:00,73.3,71.5,30.10,East,99,0.0,1.0,94,0.00,,---,0.00,VWS V14.01,2013-07-09 10:19:00,
2013-07-09 06:24:00,73.3,71.5,30.10,ENE,71,0.0,2.0,94,0.00,,---,0.00,VWS V14.01,2013-07-09 10:24:00,
2013-07-09 06:29:00,73.3,71.5,30.10,South,188,0.0,0.0,94,0.00,,---,0.00,VWS V14.01,2013-07-09 10:29:00,
2013-07-09 06:34:00,73.3,71.5,30.10,South,190,0.0,0.0,94,0.00,,---,0.00,VWS V14.01,2013-07-09 10:34:00,
2013-07-09 06:39:00,73.4,71.6,30.10,South,188,0.0,0.0,94,0.00,,---,0.00,VWS V14.01,2013-07-09 10:39:00,
2013-07-09 06:44:00,73.4,71.6,30.10,South,188,0.0,0.0,94,0.00,,---,0.00,VWS V14.01,2013-07-09 10:44:00,
2013-07-09 06:49:00,73.4,71.6,30.10,South,188,0.0,0.0,94,0.00,,---,0.00,VWS V14.01,2013-07-09 10:49:00,
2013-07-09 06:54:00,73.4,71.6,30.10,South,184,0.0,0.0,94,0.00,,---,0.00,VWS V14.01,2013-07-09 10:54:00,
2013-07-09 06:59:00,73.5,71.7,30.10,South,184,0.0,0.0,94,0.00,,---,0.00,VWS V14.01,2013-07-09 10:59:00,
2013-07-09 07:04:00,73.5,71.7,30.10,South,184,0.0,0.0,94,0.00,,---,0.00,VWS V14.01,2013-07-09 11:04:00,
2013-07-09 07:09:00,73.5,71.7,30.10,South,185,0.0,0.0,94,0.00,,---,0.00,VWS V14.01,2013-07-09 11:09:00,
2013-07-09 07:15:00,73.5,71.7,30.10,South,183,0.0,0.0,94,0.00,,---,0.00,VWS V14.01,2013-07-09 11:15:00,
2013-07-09 07:20:00,73.5,71.7,30.10,South,184,0.0,0.0,94,0.00,,---,0.00,VWS V14.01,2013-07-09 11:20:00,
2013-07-09 07:25:00,73.6,71.8,30.10,South,184,0.0,0.0,94,0.00,,---,0.00,VWS V14.01,2013-07-09 11:25:00,
2013-07-09 07:30:00,73.6,71.8,30.10,SW,227,0.0,0.0,94,0.00,,---,0.00,VWS V14.01,2013-07-09 11:30:00,
2013-07-09 07:35:00,73.7,71.9,30.10,SW,227,0.0,1.0,94,0.00,,---,0.00,VWS V14.01,2013-07-09 11:35:00,
2013-07-09 07:40:00,73.8,72.0,30.10,SW,227,1.0,1.0,94,0.00,,---,0.00,VWS V14.01,2013-07-09 11:40:00,
2013-07-09 07:45:00,73.8,72.0,30.10,SW,226,0.0,1.0,94,0.00,,---,0.00,VWS V14.01,2013-07-09 11:45:00,
2013-07-09 07:50:00,73.9,72.1,30.10,SW,226,0.0,1.0,94,0.00,,---,0.00,VWS V14.01,2013-07-09 11:50:00,
2013-07-09 07:55:00,74.0,72.2,30.10,ESE,117,1.0,4.0,94,0.00,,---,0.00,VWS V14.01,2013-07-09 11:55:00,
2013-07-09 08:00:00,74.0,72.2,30.10,ESE,113,0.0,1.0,94,0.00,,---,0.00,VWS V14.01,2013-07-09 12:00:00,
2013-07-09 08:05:00,74.0,72.2,30.10,East,80,1.0,1.0,94,0.00,,---,0.00,VWS V14.01,2013-07-09 12:05:00,
2013-07-09 08:10:00,74.1,72.3,30.10,South,169,0.0,1.0,94,0.00,,---,0.00,VWS V14.01,2013-07-09 12:10:00,
2013-07-09 08:15:00,74.1,72.3,30.10,East,81,1.0,2.0,94,0.00,,---,0.00,VWS V14.01,2013-07-09 12:15:00,
2013-07-09 08:20:00,74.2,72.7,30.10,SSE,154,0.0,2.0,95,0.00,,---,0.00,VWS V14.01,2013-07-09 12:20:00,
2013-07-09 08:25:00,74.3,72.8,30.10,SSE,153,0.0,0.0,95,0.00,,---,0.00,VWS V14.01,2013-07-09 12:25:00,
2013-07-09 08:30:00,74.3,72.8,30.10,SSE,152,0.0,0.0,95,0.00,,---,0.00,VWS V14.01,2013-07-09 12:30:00,
2013-07-09 08:35:00,74.3,72.8,30.11,WNW,302,0.0,1.0,95,0.00,,---,0.00,VWS V14.01,2013-07-09 12:35:00,
2013-07-09 08:40:00,74.4,72.9,30.11,WNW,294,0.0,1.0,95,0.00,,---,0.00,VWS V14.01,2013-07-09 12:40:00,
2013-07-09 08:45:00,74.5,73.0,30.11,WNW,294,0.0,1.0,95,0.00,,---,0.00,VWS V14.01,2013-07-09 12:45:00,
2013-07-09 08:50:00,74.5,73.0,30.11,WNW,292,0.0,1.0,95,0.00,,---,0.00,VWS V14.01,2013-07-09 12:50:00,
2013-07-09 08:55:00,74.6,73.1,30.11,WNW,294,0.0,0.0,95,0.00,,---,0.00,VWS V14.01,2013-07-09 12:55:00,
2013-07-09 09:00:00,74.7,73.2,30.11,WNW,292,0.0,1.0,95,0.00,,---,0.00,VWS V14.01,2013-07-09 13:00:00,
2013-07-09 09:05:00,74.8,73.3,30.11,WSW,238,0.0,1.0,95,0.00,,---,0.00,VWS V14.01,2013-07-09 13:05:00,
2013-07-09 09:10:00,74.9,73.4,30.11,SW,233,1.0,1.0,95,0.00,,---,0.00,VWS V14.01,2013-07-09 13:10:00,
2013-07-09 09:15:00,75.1,73.6,30.11,SW,222,0.0,1.0,95,0.00,,---,0.00,VWS V14.01,2013-07-09 13:15:00,
2013-07-09 09:20:00,75.3,73.8,30.11,SW,222,0.0,1.0,95,0.00,,---,0.00,VWS V14.01,2013-07-09 13:20:00,
2013-07-09 09:25:00,75.4,73.9,30.11,WSW,238,1.0,1.0,95,0.00,,---,0.00,VWS V14.01,2013-07-09 13:25:00,
2013-07-09 09:30:00,75.5,74.0,30.11,WSW,238,1.0,1.0,95,0.00,,---,0.00,VWS V14.01,2013-07-09 13:30:00,
2013-07-09 09:35:00,75.7,74.2,30.12,SW,236,0.0,1.0,95,0.00,,---,0.00,VWS V14.01,2013-07-09 13:35:00,
2013-07-09 09:40:00,75.8,74.3,30.11,WSW,237,0.0,1.0,95,0.00,,---,0.00,VWS V14.01,2013-07-09 13:40:00,
2013-07-09 09:46:00,76.1,74.6,30.11,SW,236,0.0,1.0,95,0.00,,---,0.00,VWS V14.01,2013-07-09 13:46:00,
2013-07-09 09:51:00,76.3,74.8,30.11,SW,236,0.0,1.0,95,0.00,,---,0.00,VWS V14.01,2013-07-09 13:51:00,
2013-07-09 09:56:00,76.4,74.6,30.11,WSW,238,0.0,0.0,94,0.00,,---,0.00,VWS V14.01,2013-07-09 13:56:00,
2013-07-09 10:00:00,76.5,74.7,30.11,South,169,0.0,0.0,94,0.00,,---,0.00,VWS V14.01,2013-07-09 14:00:00,
2013-07-09 10:06:00,76.8,74.9,30.11,South,169,0.0,0.0,94,0.00,,---,0.00,VWS V14.01,2013-07-09 14:06:00,
2013-07-09 10:11:00,77.1,75.2,30.11,East,89,0.0,0.0,94,0.00,,---,0.00,VWS V14.01,2013-07-09 14:11:00,
2013-07-09 10:16:00,77.4,75.5,30.11,ENE,61,0.0,0.0,94,0.00,,---,0.00,VWS V14.01,2013-07-09 14:16:00,
2013-07-09 10:21:00,77.7,75.5,30.11,ENE,61,0.0,0.0,93,0.00,,---,0.00,VWS V14.01,2013-07-09 14:21:00,
2013-07-09 10:26:00,77.9,75.7,30.11,SE,138,0.0,0.0,93,0.00,,---,0.00,VWS V14.01,2013-07-09 14:26:00,
2013-07-09 10:31:00,78.2,75.7,30.11,ESE,123,0.0,0.0,92,0.00,,---,0.00,VWS V14.01,2013-07-09 14:31:00,
2013-07-09 10:36:00,78.5,76.0,30.11,South,177,0.0,0.0,92,0.00,,---,0.00,VWS V14.01,2013-07-09 14:36:00,
2013-07-09 10:41:00,78.9,76.4,30.11,SW,221,0.0,0.0,92,0.00,,---,0.00,VWS V14.01,2013-07-09 14:41:00,
2013-07-09 10:46:00,79.3,76.8,30.11,SW,229,0.0,0.0,92,0.00,,---,0.00,VWS V14.01,2013-07-09 14:46:00,
2013-07-09 10:51:00,79.8,76.9,30.11,SW,229,0.0,0.0,91,0.00,,---,0.00,VWS V14.01,2013-07-09 14:51:00,
2013-07-09 10:56:00,80.5,77.6,30.11,SW,229,0.0,0.0,91,0.00,,---,0.00,VWS V14.01,2013-07-09 14:56:00,
2013-07-09 11:01:00,81.0,77.8,30.11,WSW,250,0.0,0.0,90,0.00,,---,0.00,VWS V14.01,2013-07-09 15:01:00,
2013-07-09 11:06:00,81.3,77.8,30.12,WSW,250,0.0,0.0,89,0.00,,---,0.00,VWS V14.01,2013-07-09 15:06:00,
2013-07-09 11:11:00,81.5,77.6,30.12,SW,236,0.0,0.0,88,0.00,,---,0.00,VWS V14.01,2013-07-09 15:11:00,
2013-07-09 11:16:00,81.4,77.2,30.12,South,176,0.0,0.0,87,0.00,,---,0.00,VWS V14.01,2013-07-09 15:16:00,
2013-07-09 11:21:00,81.3,77.4,30.12,SSE,148,0.0,0.0,88,0.00,,---,0.00,VWS V14.01,2013-07-09 15:21:00,
2013-07-09 11:26:00,81.2,77.0,30.12,West,259,0.0,0.0,87,0.00,,---,0.00,VWS V14.01,2013-07-09 15:26:00,
2013-07-09 11:31:00,81.0,77.1,30.12,South,171,0.0,0.0,88,0.00,,---,0.00,VWS V14.01,2013-07-09 15:31:00,
2013-07-09 11:36:00,81.2,77.3,30.12,South,169,0.0,0.0,88,0.00,,---,0.00,VWS V14.01,2013-07-09 15:36:00,
2013-07-09 11:41:00,81.4,77.2,30.12,SSW,201,0.0,0.0,87,0.00,,---,0.00,VWS V14.01,2013-07-09 15:41:00,
2013-07-09 11:46:00,81.2,77.0,30.12,South,175,0.0,0.0,87,0.00,,---,0.00,VWS V14.01,2013-07-09 15:46:00,
2013-07-09 11:51:00,81.1,77.2,30.12,South,172,0.0,0.0,88,0.00,,---,0.00,VWS V14.01,2013-07-09 15:51:00,
2013-07-09 11:56:00,81.0,77.1,30.12,WSW,255,0.0,1.0,88,0.00,,---,0.00,VWS V14.01,2013-07-09 15:56:00,
2013-07-09 12:01:00,81.0,77.1,30.12,SW,233,0.0,2.0,88,0.00,,---,0.00,VWS V14.01,2013-07-09 16:01:00,
2013-07-09 12:06:00,81.1,77.2,30.12,West,264,0.0,2.0,88,0.00,,---,0.00,VWS V14.01,2013-07-09 16:06:00,
2013-07-09 12:11:00,81.2,77.0,30.12,SSE,163,1.0,2.0,87,0.00,,---,0.00,VWS V14.01,2013-07-09 16:11:00,
2013-07-09 12:16:00,81.3,77.4,30.12,WSW,245,2.0,2.0,88,0.00,,---,0.00,VWS V14.01,2013-07-09 16:16:00,
2013-07-09 12:21:00,81.4,77.2,30.12,SSW,195,1.0,2.0,87,0.00,,---,0.00,VWS V14.01,2013-07-09 16:21:00,
2013-07-09 12:26:00,81.4,77.2,30.11,SSE,148,1.0,1.0,87,0.00,,---,0.00,VWS V14.01,2013-07-09 16:26:00,
2013-07-09 12:31:00,81.4,77.2,30.11,South,178,0.0,1.0,87,0.00,,---,0.00,VWS V14.01,2013-07-09 16:31:00,
2013-07-09 12:36:00,81.4,77.2,30.11,SSE,161,0.0,2.0,87,0.00,,---,0.00,VWS V14.01,2013-07-09 16:36:00,
2013-07-09 12:41:00,81.6,77.4,30.11,SSE,148,0.0,2.0,87,0.00,,---,0.00,VWS V14.01,2013-07-09 16:41:00,
2013-07-09 12:46:00,81.9,77.7,30.11,SSE,149,0.0,2.0,87,0.00,,---,0.00,VWS V14.01,2013-07-09 16:46:00,
2013-07-09 12:51:00,82.2,77.6,30.11,SSE,149,0.0,2.0,86,0.00,,---,0.00,VWS V14.01,2013-07-09 16:51:00,
2013-07-09 12:56:00,82.6,78.3,30.11,SE,136,1.0,1.0,87,0.00,,---,0.00,VWS V14.01,2013-07-09 16:56:00,
2013-07-09 13:01:00,82.9,77.9,30.10,SSE,153,0.0,1.0,85,0.00,,---,0.00,VWS V14.01,2013-07-09 17:01:00,
2013-07-09 13:06:00,83.3,78.3,30.10,SW,217,2.0,2.0,85,0.00,,---,0.00,VWS V14.01,2013-07-09 17:06:00,
2013-07-09 13:11:00,83.5,78.2,30.10,ESE,110,1.0,2.0,84,0.00,,---,0.00,VWS V14.01,2013-07-09 17:11:00,
2013-07-09 13:16:00,83.5,77.8,30.10,South,171,1.0,2.0,83,0.00,,---,0.00,VWS V14.01,2013-07-09 17:16:00,
2013-07-09 13:22:00,83.8,78.1,30.10,WNW,288,2.0,2.0,83,0.00,,---,0.00,VWS V14.01,2013-07-09 17:22:00,
2013-07-09 13:27:00,84.2,78.8,30.09,NNW,336,1.0,2.0,84,0.00,,---,0.00,VWS V14.01,2013-07-09 17:27:00,
2013-07-09 13:32:00,84.1,78.0,30.09,SSW,206,1.0,2.0,82,0.00,,---,0.00,VWS V14.01,2013-07-09 17:32:00,
2013-07-09 13:37:00,84.8,78.7,30.09,SSE,147,1.0,2.0,82,0.00,,---,0.00,VWS V14.01,2013-07-09 17:37:00,
2013-07-09 13:42:00,85.0,78.1,30.09,SSW,202,0.0,3.0,80,0.00,,---,0.00,VWS V14.01,2013-07-09 17:42:00,
2013-07-09 13:47:00,85.6,78.7,30.09,SE,138,0.0,3.0,80,0.00,,---,0.00,VWS V14.01,2013-07-09 17:47:00,
2013-07-09 13:52:00,86.0,78.7,30.08,South,184,1.0,3.0,79,0.00,,---,0.00,VWS V14.01,2013-07-09 17:52:00,
2013-07-09 13:57:00,86.3,78.6,30.08,SE,142,1.0,2.0,78,0.00,,---,0.00,VWS V14.01,2013-07-09 17:57:00,
2013-07-09 14:02:00,86.4,78.7,30.08,WNW,299,1.0,2.0,78,0.00,,---,0.00,VWS V14.01,2013-07-09 18:02:00,
2013-07-09 14:07:00,86.5,78.0,30.08,South,180,1.0,2.0,76,0.00,,---,0.00,VWS V14.01,2013-07-09 18:07:00,
2013-07-09 14:12:00,86.5,78.4,30.08,SW,221,2.0,2.0,77,0.00,,---,0.00,VWS V14.01,2013-07-09 18:12:00,
2013-07-09 14:17:00,86.3,78.2,30.08,NW,307,0.0,2.0,77,0.00,,---,0.00,VWS V14.01,2013-07-09 18:17:00,
2013-07-09 14:22:00,86.3,77.4,30.07,SSE,147,0.0,2.0,75,0.00,,---,0.00,VWS V14.01,2013-07-09 18:22:00,
2013-07-09 14:27:00,86.6,77.3,30.07,SSE,163,0.0,2.0,74,0.00,,---,0.00,VWS V14.01,2013-07-09 18:27:00,
2013-07-09 14:32:00,87.2,78.7,30.06,SE,134,1.0,2.0,76,0.00,,---,0.00,VWS V14.01,2013-07-09 18:32:00,
2013-07-09 14:37:00,87.2,77.9,30.07,West,271,1.0,3.0,74,0.00,,---,0.00,VWS V14.01,2013-07-09 18:37:00,
2013-07-09 14:42:00,87.5,78.2,30.07,SSE,149,1.0,3.0,74,0.00,,---,0.00,VWS V14.01,2013-07-09 18:42:00,
2013-07-09 14:47:00,87.3,78.0,30.06,South,179,0.0,3.0,74,0.00,,---,0.00,VWS V14.01,2013-07-09 18:47:00,
2013-07-09 14:52:00,87.2,78.7,30.06,WSW,253,0.0,3.0,76,0.00,,---,0.00,VWS V14.01,2013-07-09 18:52:00,
2013-07-09 14:57:00,86.9,78.4,30.07,WSW,253,0.0,0.0,76,0.00,,---,0.00,VWS V14.01,2013-07-09 18:57:00,
2013-07-09 15:02:00,86.3,78.2,30.06,WSW,252,0.0,0.0,77,0.00,,---,0.00,VWS V14.01,2013-07-09 19:02:00,
2013-07-09 15:07:00,85.8,78.5,30.06,WSW,253,0.0,0.0,79,0.00,,---,0.00,VWS V14.01,2013-07-09 19:07:00,
2013-07-09 15:12:00,85.2,78.7,30.07,WSW,253,0.0,0.0,81,0.00,,---,0.00,VWS V14.01,2013-07-09 19:12:00,
2013-07-09 15:17:00,84.5,78.4,30.07,WSW,256,0.0,0.0,82,0.00,,---,0.00,VWS V14.01,2013-07-09 19:17:00,
2013-07-09 15:22:00,84.0,78.3,30.06,West,263,0.0,0.0,83,0.00,,---,0.00,VWS V14.01,2013-07-09 19:22:00,
2013-07-09 15:27:00,83.6,78.6,30.06,West,263,0.0,0.0,85,0.00,,---,0.00,VWS V14.01,2013-07-09 19:27:00,
2013-07-09 15:32:00,82.9,77.9,30.06,West,267,0.0,0.0,85,0.01,,---,0.01,VWS V14.01,2013-07-09 19:32:00,
2013-07-09 15:37:00,82.2,77.9,30.06,West,271,0.0,0.0,87,0.01,,---,0.01,VWS V14.01,2013-07-09 19:37:00,
2013-07-09 15:42:00,81.5,77.9,30.06,WNW,300,0.0,0.0,89,0.01,,---,0.01,VWS V14.01,2013-07-09 19:42:00,
2013-07-09 15:47:00,80.9,77.7,30.05,NW,314,0.0,0.0,90,0.01,,---,0.01,VWS V14.01,2013-07-09 19:47:00,
2013-07-09 15:52:00,80.6,77.7,30.05,NW,319,0.0,0.0,91,0.01,,---,0.01,VWS V14.01,2013-07-09 19:52:00,
2013-07-09 15:57:00,80.3,77.8,30.05,NW,325,0.0,0.0,92,0.01,,---,0.01,VWS V14.01,2013-07-09 19:57:00,
2013-07-09 16:02:00,80.0,77.5,30.06,NNW,327,0.0,0.0,92,0.01,,---,0.01,VWS V14.01,2013-07-09 20:02:00,
2013-07-09 16:07:00,79.8,77.6,30.06,NNW,338,0.0,0.0,93,0.01,,---,0.01,VWS V14.01,2013-07-09 20:07:00,
2013-07-09 16:12:00,79.6,77.4,30.06,North,5,0.0,0.0,93,0.01,,---,0.01,VWS V14.01,2013-07-09 20:12:00,
2013-07-09 16:17:00,79.2,77.0,30.06,North,11,0.0,0.0,93,0.01,,---,0.01,VWS V14.01,2013-07-09 20:17:00,
2013-07-09 16:22:00,79.0,76.8,30.05,NNE,13,0.0,0.0,93,0.01,,---,0.01,VWS V14.01,2013-07-09 20:22:00,
2013-07-09 16:27:00,79.0,76.8,30.05,NNE,28,0.0,0.0,93,0.01,,---,0.01,VWS V14.01,2013-07-09 20:27:00,
2013-07-09 16:32:00,79.0,77.1,30.05,ENE,71,0.0,0.0,94,0.02,,---,0.02,VWS V14.01,2013-07-09 20:32:00,
2013-07-09 16:37:00,78.9,77.0,30.04,East,88,0.0,0.0,94,0.02,,---,0.02,VWS V14.01,2013-07-09 20:37:00,
2013-07-09 16:42:00,78.8,76.9,30.04,ENE,61,0.0,0.0,94,0.02,,---,0.02,VWS V14.01,2013-07-09 20:42:00,
2013-07-09 16:47:00,78.6,76.7,30.05,East,81,0.0,0.0,94,0.03,,---,0.03,VWS V14.01,2013-07-09 20:47:00,
2013-07-09 16:52:00,78.6,76.7,30.05,ENE,76,0.0,0.0,94,0.03,,---,0.03,VWS V14.01,2013-07-09 20:52:00,
2013-07-09 16:57:00,78.6,76.7,30.05,ENE,76,0.0,0.0,94,0.02,,---,0.03,VWS V14.01,2013-07-09 20:57:00,
2013-07-09 17:02:00,78.8,76.9,30.05,East,87,0.0,0.0,94,0.02,,---,0.03,VWS V14.01,2013-07-09 21:02:00,
2013-07-09 17:07:00,78.9,77.3,30.04,East,98,0.0,0.0,95,0.02,,---,0.03,VWS V14.01,2013-07-09 21:07:00,
2013-07-09 17:12:00,79.0,77.1,30.04,SSE,164,1.0,1.0,94,0.02,,---,0.03,VWS V14.01,2013-07-09 21:12:00,
2013-07-09 17:17:00,79.1,77.2,30.04,SSW,202,0.0,1.0,94,0.02,,---,0.03,VWS V14.01,2013-07-09 21:17:00,
2013-07-09 17:23:00,78.9,77.0,30.04,South,173,0.0,1.0,94,0.02,,---,0.03,VWS V14.01,2013-07-09 21:23:00,
2013-07-09 17:28:00,78.8,76.6,30.04,South,173,0.0,0.0,93,0.02,,---,0.03,VWS V14.01,2013-07-09 21:28:00,
2013-07-09 17:33:00,78.8,76.6,30.04,SSE,165,0.0,1.0,93,0.02,,---,0.03,VWS V14.01,2013-07-09 21:33:00,
2013-07-09 17:38:00,78.9,76.7,30.04,SE,133,0.0,1.0,93,0.02,,---,0.03,VWS V14.01,2013-07-09 21:38:00,
2013-07-09 17:43:00,79.2,77.0,30.04,South,191,0.0,1.0,93,0.02,,---,0.03,VWS V14.01,2013-07-09 21:43:00,
2013-07-09 17:48:00,79.4,76.6,30.04,SW,236,0.0,1.0,91,0.02,,---,0.03,VWS V14.01,2013-07-09 21:48:00,
2013-07-09 17:53:00,79.4,76.6,30.04,SSE,164,1.0,2.0,91,0.02,,---,0.03,VWS V14.01,2013-07-09 21:53:00,
2013-07-09 17:58:00,79.5,77.0,30.04,SSE,153,0.0,0.0,92,0.00,,---,0.03,VWS V14.01,2013-07-09 21:58:00,
2013-07-09 18:03:00,79.3,76.4,30.03,South,174,0.0,1.0,91,0.00,,---,0.03,VWS V14.01,2013-07-09 22:03:00,
2013-07-09 18:08:00,79.1,75.9,30.03,ESE,117,1.0,2.0,90,0.00,,---,0.03,VWS V14.01,2013-07-09 22:08:00,
2013-07-09 18:13:00,79.0,76.2,30.04,SSW,192,0.0,2.0,91,0.00,,---,0.03,VWS V14.01,2013-07-09 22:13:00,
2013-07-09 18:18:00,78.9,76.1,30.03,SE,130,0.0,2.0,91,0.00,,---,0.03,VWS V14.01,2013-07-09 22:18:00,
2013-07-09 18:23:00,78.9,76.4,30.03,SW,233,1.0,2.0,92,0.00,,---,0.03,VWS V14.01,2013-07-09 22:23:00,
2013-07-09 18:28:00,78.8,76.3,30.02,ENE,78,0.0,2.0,92,0.00,,---,0.03,VWS V14.01,2013-07-09 22:28:00,
2013-07-09 18:33:00,78.9,76.4,30.02,NE,56,0.0,2.0,92,0.00,,---,0.03,VWS V14.01,2013-07-09 22:33:00,
2013-07-09 18:38:00,78.9,76.4,30.02,ESE,119,0.0,2.0,92,0.00,,---,0.03,VWS V14.01,2013-07-09 22:38:00,
2013-07-09 18:43:00,78.9,76.1,30.03,SW,230,1.0,2.0,91,0.00,,---,0.03,VWS V14.01,2013-07-09 22:43:00,
2013-07-09 18:48:00,78.8,75.9,30.02,South,174,0.0,2.0,91,0.00,,---,0.03,VWS V14.01,2013-07-09 22:48:00,
2013-07-09 18:53:00,78.8,75.9,30.02,SE,141,0.0,2.0,91,0.00,,---,0.03,VWS V14.01,2013-07-09 22:53:00,
2013-07-09 18:58:00,78.7,76.2,30.02,SE,141,1.0,1.0,92,0.00,,---,0.03,VWS V14.01,2013-07-09 22:58:00,
2013-07-09 19:03:00,78.6,76.1,30.03,South,183,0.0,1.0,92,0.00,,---,0.03,VWS V14.01,2013-07-09 23:03:00,
2013-07-09 19:08:00,78.4,75.9,30.03,SSE,164,0.0,1.0,92,0.00,,---,0.03,VWS V14.01,2013-07-09 23:08:00,
2013-07-09 19:13:00,78.3,75.8,30.04,South,182,0.0,1.0,92,0.00,,---,0.03,VWS V14.01,2013-07-09 23:13:00,
2013-07-09 19:18:00,78.3,76.1,30.05,SSW,196,0.0,1.0,93,0.00,,---,0.03,VWS V14.01,2013-07-09 23:18:00,
2013-07-09 19:23:00,78.3,76.1,30.05,SSW,194,0.0,1.0,93,0.00,,---,0.03,VWS V14.01,2013-07-09 23:23:00,
2013-07-09 19:28:00,78.3,76.1,30.05,South,188,0.0,0.0,93,0.00,,---,0.03,VWS V14.01,2013-07-09 23:28:00,
2013-07-09 19:33:00,78.3,76.1,30.05,SSW,195,0.0,0.0,93,0.00,,---,0.03,VWS V14.01,2013-07-09 23:33:00,
2013-07-09 19:38:00,78.3,76.1,30.05,SSW,195,0.0,0.0,93,0.00,,---,0.03,VWS V14.01,2013-07-09 23:38:00,
2013-07-09 19:43:00,78.1,75.9,30.05,South,183,0.0,0.0,93,0.00,,---,0.03,VWS V14.01,2013-07-09 23:43:00,
2013-07-09 19:48:00,78.2,76.0,30.05,South,183,0.0,0.0,93,0.00,,---,0.03,VWS V14.01,2013-07-09 23:48:00,
2013-07-09 19:53:00,78.1,75.9,30.05,SSW,204,0.0,0.0,93,0.00,,---,0.03,VWS V14.01,2013-07-09 23:53:00,
2013-07-09 19:58:00,77.9,75.7,30.05,SW,215,0.0,0.0,93,0.00,,---,0.03,VWS V14.01,2013-07-09 23:58:00,
2013-07-09 20:03:00,77.8,75.9,30.06,SW,223,0.0,0.0,94,0.00,,---,0.03,VWS V14.01,2013-07-10 00:03:00,
2013-07-09 20:08:00,77.7,75.8,30.06,SW,222,0.0,0.0,94,0.00,,---,0.03,VWS V14.01,2013-07-10 00:08:00,
2013-07-09 20:13:00,77.6,75.7,30.06,SW,214,0.0,1.0,94,0.00,,---,0.03,VWS V14.01,2013-07-10 00:13:00,
2013-07-09 20:18:00,77.4,75.2,30.06,SE,142,2.0,2.0,93,0.00,,---,0.03,VWS V14.01,2013-07-10 00:18:00,
2013-07-09 20:19:00,77.3,75.1,30.05,SE,126,1.0,2.0,93,0.00,,---,0.03,VWS V14.01,2013-07-10 00:19:00,
2013-07-09 20:24:00,77.4,75.2,30.06,East,85,0.0,2.0,93,0.00,,---,0.03,VWS V14.01,2013-07-10 00:24:00,
2013-07-09 20:29:00,77.4,75.2,30.06,East,85,0.0,1.0,93,0.00,,---,0.03,VWS V14.01,2013-07-10 00:29:00,
2013-07-09 20:34:00,77.4,75.2,30.05,East,86,0.0,1.0,93,0.00,,---,0.03,VWS V14.01,2013-07-10 00:34:00,
2013-07-09 20:39:00,77.1,74.9,30.05,East,81,0.0,1.0,93,0.00,,---,0.03,VWS V14.01,2013-07-10 00:39:00,
2013-07-09 20:44:00,76.7,74.5,30.05,East,80,0.0,1.0,93,0.00,,---,0.03,VWS V14.01,2013-07-10 00:44:00,
2013-07-09 20:49:00,76.5,74.3,30.05,East,80,0.0,1.0,93,0.00,,---,0.03,VWS V14.01,2013-07-10 00:49:00,
2013-07-09 20:54:00,76.3,74.1,30.06,East,84,0.0,1.0,93,0.00,,---,0.03,VWS V14.01,2013-07-10 00:54:00,
2013-07-09 20:59:00,76.0,73.8,30.06,ESE,123,0.0,1.0,93,0.00,,---,0.03,VWS V14.01,2013-07-10 00:59:00,
2013-07-09 21:04:00,75.7,73.5,30.05,SE,126,0.0,1.0,93,0.00,,---,0.03,VWS V14.01,2013-07-10 01:04:00,
2013-07-09 21:09:00,75.6,73.4,30.05,SE,127,0.0,1.0,93,0.00,,---,0.03,VWS V14.01,2013-07-10 01:09:00,
2013-07-09 21:14:00,75.2,72.7,30.05,SE,126,0.0,1.0,92,0.00,,---,0.03,VWS V14.01,2013-07-10 01:14:00,
2013-07-09 21:19:00,74.9,72.4,30.05,SE,135,0.0,1.0,92,0.00,,---,0.03,VWS V14.01,2013-07-10 01:19:00,
2013-07-09 21:24:00,74.6,72.1,30.05,SE,141,1.0,1.0,92,0.00,,---,0.03,VWS V14.01,2013-07-10 01:24:00,
2013-07-09 21:29:00,74.6,72.4,30.06,SE,142,0.0,0.0,93,0.00,,---,0.03,VWS V14.01,2013-07-10 01:29:00,
2013-07-09 21:34:00,74.6,72.4,30.06,SE,142,0.0,0.0,93,0.00,,---,0.03,VWS V14.01,2013-07-10 01:34:00,
2013-07-09 21:39:00,74.4,72.2,30.07,SE,140,0.0,0.0,93,0.00,,---,0.03,VWS V14.01,2013-07-10 01:39:00,
2013-07-09 21:44:00,74.3,72.5,30.07,SE,142,0.0,0.0,94,0.00,,---,0.03,VWS V14.01,2013-07-10 01:44:00,
2013-07-09 21:49:00,74.0,71.8,30.07,SE,145,0.0,1.0,93,0.00,,---,0.03,VWS V14.01,2013-07-10 01:49:00,
2013-07-09 21:54:00,73.6,71.5,30.08,SE,145,0.0,1.0,93,0.00,,---,0.03,VWS V14.01,2013-07-10 01:54:00,
2013-07-09 21:59:00,73.3,71.2,30.07,SSE,147,0.0,1.0,93,0.00,,---,0.03,VWS V14.01,2013-07-10 01:59:00,
2013-07-09 22:04:00,73.2,70.7,30.07,SE,146,0.0,1.0,92,0.00,,---,0.03,VWS V14.01,2013-07-10 02:04:00,
2013-07-09 22:09:00,73.2,70.7,30.07,SE,146,0.0,1.0,92,0.00,,---,0.03,VWS V14.01,2013-07-10 02:09:00,
2013-07-09 22:14:00,73.2,71.1,30.07,SSE,147,0.0,1.0,93,0.00,,---,0.03,VWS V14.01,2013-07-10 02:14:00,
2013-07-09 22:19:00,73.2,71.1,30.07,SSE,150,0.0,1.0,93,0.00,,---,0.03,VWS V14.01,2013-07-10 02:19:00,
2013-07-09 22:24:00,73.1,71.0,30.07,SSE,149,0.0,1.0,93,0.00,,---,0.03,VWS V14.01,2013-07-10 02:24:00,
2013-07-09 22:29:00,72.8,70.7,30.07,SSE,149,0.0,1.0,93,0.00,,---,0.03,VWS V14.01,2013-07-10 02:29:00,
2013-07-09 22:34:00,72.7,70.6,30.07,SSE,150,0.0,1.0,93,0.00,,---,0.03,VWS V14.01,2013-07-10 02:34:00,
2013-07-09 22:39:00,72.5,70.4,30.07,SSE,150,0.0,1.0,93,0.00,,---,0.03,VWS V14.01,2013-07-10 02:39:00,
2013-07-09 22:44:00,72.4,70.3,30.07,SSE,150,0.0,1.0,93,0.00,,---,0.03,VWS V14.01,2013-07-10 02:44:00,
2013-07-09 22:49:00,72.3,70.2,30.07,SSE,149,0.0,1.0,93,0.00,,---,0.03,VWS V14.01,2013-07-10 02:49:00,
2013-07-09 22:54:00,72.2,70.1,30.07,SSE,149,0.0,1.0,93,0.00,,---,0.03,VWS V14.01,2013-07-10 02:54:00,
2013-07-09 22:59:00,72.1,70.0,30.07,SSE,151,0.0,0.0,93,0.00,,---,0.03,VWS V14.01,2013-07-10 02:59:00,
2013-07-09 23:04:00,72.1,70.0,30.07,SSE,150,0.0,1.0,93,0.00,,---,0.03,VWS V14.01,2013-07-10 03:04:00,
2013-07-09 23:09:00,72.1,70.0,30.07,SSE,151,0.0,1.0,93,0.00,,---,0.03,VWS V14.01,2013-07-10 03:09:00,
2013-07-09 23:14:00,72.1,70.0,30.08,SSE,150,0.0,1.0,93,0.00,,---,0.03,VWS V14.01,2013-07-10 03:14:00,
2013-07-09 23:19:00,72.1,70.0,30.07,SE,138,0.0,1.0,93,0.00,,---,0.03,VWS V14.01,2013-07-10 03:19:00,
2013-07-09 23:24:00,72.1,70.0,30.08,SE,139,0.0,1.0,93,0.00,,---,0.03,VWS V14.01,2013-07-10 03:24:00,
2013-07-09 23:29:00,72.0,69.9,30.08,SE,136,0.0,0.0,93,0.00,,---,0.03,VWS V14.01,2013-07-10 03:29:00,
2013-07-09 23:34:00,72.0,69.9,30.08,SE,137,0.0,0.0,93,0.00,,---,0.03,VWS V14.01,2013-07-10 03:34:00,
2013-07-09 23:39:00,72.1,70.0,30.08,SE,138,0.0,0.0,93,0.00,,---,0.03,VWS V14.01,2013-07-10 03:39:00,
2013-07-09 23:44:00,72.0,69.9,30.08,SSE,151,0.0,0.0,93,0.00,,---,0.03,VWS V14.01,2013-07-10 03:44:00,
2013-07-09 23:49:00,71.9,69.8,30.08,SSE,160,0.0,0.0,93,0.00,,---,0.03,VWS V14.01,2013-07-10 03:49:00,
2013-07-09 23:54:00,71.8,70.0,30.07,SSE,161,0.0,0.0,94,0.00,,---,0.03,VWS V14.01,2013-07-10 03:54:00,
2013-07-09 23:59:00,71.7,69.9,30.07,SSE,160,0.0,0.0,94,0.00,,---,0.00,VWS V14.01,2013-07-10 03:59:00,